Powrót do katalogu

CZ-6A DEB

AktywnySSO
NORAD 54574·DEBRIS·🇨🇳 China

Wystrzelony Nov 11, 2022 z Taiyuan Satellite Launch Center

Loading…

Następne Przeloty (najbliższe 24 godziny)

TLE

ŚwieżeSource: Space-Track

Epoka: Sep 13, 2026, 08:33 UTC

1 54574U 22151MA  26256.35643727  .00001386  00000-0  32701-3 0  9998
2 54574  98.5550 303.6576 0100906  34.2226 326.5418 14.52847641201806

Śledź CZ-6A DEB w czasie rzeczywistym z AllMySat

Download on the App Store